Tracking 18840 objects as of 19-November-2017
HD Live streaming from Space Station
objects crossing your sky now

IRIDIUM 123

Track IRIDIUM 123 now!
10-day predictions
IRIDIUM 123 is classified as:


NORAD ID: 42804
Int'l Code: 2017-039B
Perigee: 783.5 km
Apogee: 786.1 km
Inclination: 86.4 °
Period: 100.4 minutes
Semi major axis: 7155 km
RCS: Unknown
Launch date: June 25, 2017
Source: United States (US)
Launch site: AIR FORCE WESTERN TEST RANGE (AFWTR)
aabbcc
Your satellite tracking list
Your tracking list is empty




NASA's NSSDC Master Catalog

Two Line Element Set (TLE):
1 42804U 17039B   17322.95442749 +.00000115 +00000-0 +33907-4 0  9990
2 42804 086.4014 222.4959 0001828 089.1158 271.0247 14.34216916021000
Source of the keplerian elements: AFSPC